Chicago, IL

10:45 AM CDT on May 26, 2017 (GMT -0500)
Chicago-O'Hare International

Weather History for KORD - February, 2014

Change the Weather History Date:

Sunday, February 23, 2014

  Actual Average Record
Temperature  
Mean Temperature 22 °F 30 °F  
Max Temperature 28 °F 38 °F 66 °F (2000)
Min Temperature 15 °F 23 °F -18 °F (1873)
Degree Days  
Heating Degree Days 43 35  
Month to date heating degree days 1074 875  
Since 1 July heating degree days 5161 4565  
Cooling Degree Days 0 0  
Month to date cooling degree days 0 0  
Year to date cooling degree days 0 0  
Moisture  
Dew Point 5 °F    
Average Humidity 48    
Maximum Humidity 57    
Minimum Humidity 38    
Precipitation  
Precipitation 0.00 in 0.08 in 1.45 in (1985)
Month to date precipitation 2.48 1.40  
Year to date precipitation 5.30 3.13  
Snow  
Snow 0.00 in 0.30 in 5.50 in (1967)
Month to date snowfall 19.5 7.7  
Since 1 July snowfall 68.3 28.1  
Snow Depth 3.00 in    
Sea Level Pressure  
Sea Level Pressure 30.18 in    
Wind  
Wind Speed 13 mph (West)    
Max Wind Speed 21 mph    
Max Gust Speed 26 mph    
Visibility 10 miles    
Events      
T = Trace of Precipitation, MM = Missing Value Source: NWS Daily Summary

Daily Weather History Graph

Daily Weather History Graph

Search for Another Location

Airport or City:

Trip Planner

Search our weather history database for the weather conditions in past years. The results will help you decide how hot, cold, wet, or windy it might be!

Date:

Astronomy

Feb. 23, 2014 Rise Set
Actual Time 6:35 AM CST 5:34 PM CST
Civil Twilight 6:07 AM CST 6:02 PM CST
Nautical Twilight 5:35 AM CST 6:35 PM CST
Astronomical Twilight 5:03 AM CST 7:07 PM CST
Moon 1:36 AM CST (2/23) 11:33 AM CST (2/23)
Length of Visible Light 11h 55m
Length of Day
10h 58m
Last Quarter, 38% of the Moon is Illuminated
Feb 23
Last Quarter
Mar 1
New
Mar 8
First Quarter
Mar 16
Full
Mar 23
Last Quarter

Hourly Weather History & Observations

Time (CST) Temp. Windchill Dew Point Humidity Pressure Visibility Wind Dir Wind Speed Gust Speed Precip Events Conditions
12:51 AM 19.9 °F 7.9 °F 7.0 °F 57% 30.07 in 10.0 mi NW 11.5 mph - N/A   Partly Cloudy
1:51 AM 19.0 °F 8.2 °F 6.1 °F 57% 30.08 in 10.0 mi NW 9.2 mph - N/A   Mostly Cloudy
2:51 AM 18.0 °F 6.9 °F 5.0 °F 57% 30.09 in 10.0 mi NW 9.2 mph - N/A   Mostly Cloudy
3:51 AM 18.0 °F 9.8 °F 3.9 °F 54% 30.13 in 10.0 mi West 5.8 mph - N/A   Overcast
4:51 AM 18.0 °F 7.7 °F 3.9 °F 54% 30.15 in 10.0 mi West 8.1 mph - N/A   Overcast
5:51 AM 17.1 °F 5.0 °F 1.9 °F 52% 30.17 in 10.0 mi West 10.4 mph - N/A   Overcast
6:51 AM 16.0 °F 5.3 °F 1.9 °F 54% 30.18 in 10.0 mi West 8.1 mph - N/A   Mostly Cloudy
7:51 AM 16.0 °F 4.4 °F 1.9 °F 54% 30.20 in 10.0 mi West 9.2 mph - N/A   Mostly Cloudy
8:51 AM 17.1 °F 3.0 °F 1.9 °F 52% 30.22 in 10.0 mi West 13.8 mph - N/A   Mostly Cloudy
9:51 AM 19.0 °F 5.6 °F 3.0 °F 50% 30.22 in 10.0 mi West 13.8 mph - N/A   Mostly Cloudy
10:51 AM 21.9 °F 10.4 °F 3.9 °F 46% 30.22 in 10.0 mi West 11.5 mph - N/A   Mostly Cloudy
11:51 AM 24.1 °F 11.0 °F 5.0 °F 44% 30.21 in 10.0 mi West 16.1 mph 20.7 mph N/A   Mostly Cloudy
12:51 PM 26.1 °F 15.0 °F 5.0 °F 41% 30.19 in 10.0 mi WNW 12.7 mph - N/A   Scattered Clouds
1:51 PM 27.0 °F 16.1 °F 8.1 °F 45% 30.19 in 10.0 mi West 12.7 mph - N/A   Partly Cloudy
2:51 PM 27.0 °F 16.1 °F 9.0 °F 47% 30.18 in 10.0 mi West 12.7 mph - N/A   Partly Cloudy
3:51 PM 26.1 °F 12.7 °F 8.1 °F 47% 30.19 in 10.0 mi West 18.4 mph 24.2 mph N/A   Partly Cloudy
4:51 PM 25.0 °F 10.9 °F 7.0 °F 46% 30.19 in 10.0 mi West 19.6 mph - N/A   Partly Cloudy
5:51 PM 24.1 °F 12.0 °F 8.1 °F 51% 30.19 in 10.0 mi West 13.8 mph - N/A   Partly Cloudy
6:51 PM 21.9 °F 7.8 °F 7.0 °F 53% 30.20 in 10.0 mi West 17.3 mph 24.2 mph N/A   Clear
7:51 PM 19.9 °F 5.7 °F 7.0 °F 57% 30.20 in 10.0 mi West 16.1 mph - N/A   Clear
8:51 PM 19.0 °F 5.6 °F 6.1 °F 57% 30.21 in 10.0 mi West 13.8 mph - N/A   Clear
9:51 PM 18.0 °F 3.6 °F 3.9 °F 54% 30.21 in 10.0 mi West 15.0 mph - N/A   Clear
10:51 PM 17.1 °F 3.6 °F 3.9 °F 56% 30.22 in 10.0 mi WNW 12.7 mph - N/A   Clear
11:51 PM 15.1 °F 1.1 °F 3.0 °F 59% 30.24 in 10.0 mi WNW 12.7 mph 19.6 mph N/A   Clear